User: anonymous   Login
Location: Unspecified
(0.0000°N, 0.0000°E)
Time: 11:27:41
(UTC+00:00)
Language:

AO-73 - Orbit

View from above orbital plane
View from above orbital plane
View from above satellite
View from above satellite

Ground track
Ground track

The orbit data is extracted from the following two-line orbital elements,

1 39444U 13066AE  22333.19990178  .00002130  00000-0  25380-3 0  9994
2 39444  97.6469 299.9503 0054494 210.1093 149.6986 14.84296043486547
Epoch (UTC): 29 November 2022 04:47:51
Eccentricity: 0.0054494
inclination: 97.6469°
perigee height: 577 km
apogee height: 654 km
right ascension of ascending node: 299.9503°
argument of perigee: 210.1093°
revolutions per day: 14.84296043
mean anomaly at epoch: 149.6986°
orbit number at epoch: 48654

The dashed part of the orbit path shows where the satellite is in the earth's shadow,  

DLR